When you browse on this site, cookies collect data to enhance your experience and personalize the content and advertising you see.
Visit our Privacy Policy to learn more. By continuing to use the site, you agree to this use of cookies and data.
  • In Czech Republic
  • List of Countries
  • For 7 days
  • Water Temperature
  • Satellite Maps
  • Weather Map
  • Weather Widgets
  • user-avatar
    Login

    Hourly Weather Sysova

    Today, 21 November, Wednesday

    Time Temperature Precipitation Wind Pressure Humidity
    00:00 -4°C° 0 mm 2 mps 763 mmHg 91%
    01:00 -4°C° 0 mm 2 mps 763 mmHg 93%
    02:00 -4°C° 0 mm 2 mps 763 mmHg 95%
    03:00 -4°C° 0 mm 2 mps 763 mmHg 95%
    04:00 -2°C° 0 mm 1 mps 763 mmHg 95%
    05:00 -1°C° 0 mm 1 mps 763 mmHg 95%
    06:00 -1°C° 0 mm 1 mps 763 mmHg 94%
    07:00 -1°C° 0 mm 1 mps 763 mmHg 94%
    08:00 0°C° 0 mm 1 mps 763 mmHg 94%
    09:00 0°C° 0 mm 1 mps 763 mmHg 91%
    10:00 +1°C° 0 mm 1 mps 763 mmHg 89%
    11:00 +1°C° 0 mm 1 mps 764 mmHg 87%
    12:00 +1°C° 0 mm 1 mps 763 mmHg 87%
    13:00 +2°C° 0 mm 1 mps 763 mmHg 87%
    14:00 +2°C° 0 mm 1 mps 763 mmHg 86%
    15:00 +1°C° 0 mm 1 mps 763 mmHg 89%
    16:00 0°C° 0 mm 1 mps 763 mmHg 92%
    17:00 -3°C° 0 mm 2 mps 763 mmHg 94%
    18:00 -3°C° 0 mm 2 mps 763 mmHg 94%
    19:00 -4°C° 0 mm 2 mps 763 mmHg 94%
    20:00 -4°C° 0 mm 2 mps 762 mmHg 95%
    21:00 -4°C° 0 mm 2 mps 762 mmHg 94%
    22:00 -4°C° 0 mm 2 mps 762 mmHg 94%
    23:00 -4°C° 0 mm 2 mps 762 mmHg 94%

    Tomorrow, 22 November, Thursday

    Time Temperature Precipitation Wind Pressure Humidity
    00:00 -4°C° 0 mm 2 mps 762 mmHg 94%
    01:00 -4°C° 0 mm 2 mps 762 mmHg 94%
    02:00 -4°C° 0 mm 2 mps 761 mmHg 94%
    03:00 -4°C° 0 mm 2 mps 761 mmHg 94%
    04:00 -4°C° 0 mm 3 mps 761 mmHg 94%
    05:00 -4°C° 0 mm 3 mps 760 mmHg 94%
    06:00 -4°C° 0 mm 3 mps 760 mmHg 93%
    07:00 -4°C° 0 mm 3 mps 760 mmHg 92%
    08:00 -4°C° 0 mm 3 mps 759 mmHg 91%
    09:00 -4°C° 0 mm 3 mps 759 mmHg 88%
    10:00 -3°C° 0 mm 4 mps 759 mmHg 84%
    11:00 -2°C° 0 mm 4 mps 759 mmHg 81%
    12:00 -2°C° 0 mm 4 mps 758 mmHg 81%
    13:00 -1°C° 0 mm 4 mps 758 mmHg 82%
    14:00 -1°C° 0 mm 4 mps 758 mmHg 82%
    15:00 -1°C° 0 mm 4 mps 758 mmHg 84%
    16:00 -1°C° 0 mm 4 mps 758 mmHg 85%
    17:00 -2°C° 0 mm 4 mps 758 mmHg 87%
    18:00 -2°C° 0 mm 4 mps 758 mmHg 89%
    19:00 -1°C° 0 mm 3 mps 758 mmHg 90%
    20:00 -1°C° 0 mm 3 mps 758 mmHg 92%
    21:00 -1°C° 0 mm 3 mps 759 mmHg 92%
    22:00 -1°C° 0 mm 2 mps 759 mmHg 93%
    23:00 -1°C° 0 mm 2 mps 759 mmHg 93%

    Day after tomorrow, 23 November, Friday

    Time Temperature Precipitation Wind Pressure Humidity
    00:00 -1°C° 0 mm 2 mps 760 mmHg 94%
    01:00 -2°C° 0 mm 2 mps 760 mmHg 95%
    02:00 -2°C° 0 mm 2 mps 760 mmHg 96%
    03:00 -1°C° 0 mm 1 mps 760 mmHg 96%
    04:00 -1°C° 0 mm 1 mps 761 mmHg 97%
    05:00 -1°C° 0 mm 1 mps 761 mmHg 97%
    06:00 -1°C° 0 mm 1 mps 761 mmHg 96%
    07:00 -1°C° 0 mm 1 mps 761 mmHg 96%
    08:00 -1°C° 0 mm 1 mps 761 mmHg 96%
    09:00 0°C° 0 mm 1 mps 761 mmHg 94%
    10:00 -2°C° 0 mm 2 mps 762 mmHg 92%
    11:00 -1°C° 0 mm 2 mps 762 mmHg 90%
    12:00 -1°C° 0 mm 2 mps 761 mmHg 90%
    13:00 -1°C° 0 mm 2 mps 761 mmHg 89%
    14:00 -1°C° 0 mm 3 mps 761 mmHg 89%
    15:00 -1°C° 0 mm 3 mps 761 mmHg 89%
    16:00 -1°C° 0 mm 3 mps 760 mmHg 89%
    17:00 -1°C° 0 mm 3 mps 760 mmHg 89%
    18:00 -1°C° 0 mm 3 mps 760 mmHg 89%
    19:00 -1°C° 0 mm 3 mps 759 mmHg 88%
    20:00 -1°C° 0 mm 3 mps 759 mmHg 87%
    21:00 -2°C° 0 mm 4 mps 759 mmHg 87%
    22:00 -2°C° 0 mm 4 mps 758 mmHg 86%
    23:00 -2°C° 0 mm 4 mps 758 mmHg 85%

    24 November, Saturday

    Time Temperature Precipitation Wind Pressure Humidity
    00:00 -2°C° 0 mm 4 mps 757 mmHg 85%
    01:00 -2°C° 0 mm 4 mps 757 mmHg 84%
    02:00 -2°C° 0 mm 4 mps 757 mmHg 84%
    03:00 -3°C° 0 mm 4 mps 756 mmHg 84%
    04:00 -3°C° 0 mm 4 mps 756 mmHg 85%
    05:00 -3°C° 0 mm 4 mps 755 mmHg 85%
    06:00 -3°C° 0 mm 4 mps 755 mmHg 86%
    07:00 -4°C° 0 mm 4 mps 754 mmHg 87%
    08:00 -4°C° 0 mm 3 mps 754 mmHg 88%
    09:00 -4°C° 0 mm 3 mps 753 mmHg 86%
    10:00 -4°C° 0 mm 3 mps 753 mmHg 84%
    11:00 -2°C° 0 mm 3 mps 753 mmHg 82%
    12:00 -2°C° 0 mm 3 mps 753 mmHg 82%
    13:00 -2°C° 0 mm 3 mps 752 mmHg 81%
    14:00 -2°C° 0 mm 3 mps 752 mmHg 81%
    15:00 -2°C° 0 mm 3 mps 752 mmHg 81%
    16:00 -2°C° 0 mm 3 mps 751 mmHg 82%
    17:00 -2°C° 0 mm 3 mps 751 mmHg 83%
    18:00 -2°C° 0 mm 3 mps 751 mmHg 83%
    19:00 -2°C° 0 mm 3 mps 751 mmHg 84%
    20:00 -2°C° 0 mm 3 mps 751 mmHg 85%
    21:00 -2°C° 0 mm 3 mps 751 mmHg 86%
    22:00 -2°C° 0 mm 2 mps 752 mmHg 88%
    23:00 -2°C° 0 mm 2 mps 752 mmHg 89%

    25 November, Sunday

    Time Temperature Precipitation Wind Pressure Humidity
    00:00 -2°C° 0 mm 2 mps 752 mmHg 91%
    01:00 -1°C° 0 mm 1 mps 752 mmHg 93%
    02:00 -1°C° 0 mm 1 mps 752 mmHg 94%
    03:00 -1°C° 0 mm 1 mps 752 mmHg 94%
    04:00 -2°C° 0 mm 1 mps 752 mmHg 94%
    05:00 -2°C° 0 mm 1 mps 753 mmHg 94%
    06:00 -2°C° 0 mm 1 mps 753 mmHg 93%
    07:00 -2°C° 0 mm 1 mps 753 mmHg 93%
    08:00 -3°C° 0 mm 1 mps 753 mmHg 92%
    09:00 -3°C° 0 mm 0 mps 753 mmHg 89%
    10:00 -2°C° 0 mm 0 mps 753 mmHg 85%
    11:00 -1°C° 0 mm 0 mps 753 mmHg 82%
    12:00 -1°C° 0 mm 0 mps 753 mmHg 82%
    13:00 -1°C° 0 mm 0 mps 753 mmHg 82%
    14:00 -1°C° 0 mm 0 mps 753 mmHg 83%
    15:00 -2°C° 0 mm 0 mps 753 mmHg 85%
    16:00 -3°C° 0 mm 0 mps 753 mmHg 88%
    17:00 -3°C° 0 mm 1 mps 752 mmHg 90%
    18:00 -4°C° 0 mm 0 mps 752 mmHg 91%
    19:00 -4°C° 0 mm 0 mps 752 mmHg 91%
    20:00 -4°C° 0 mm 0 mps 752 mmHg 92%
    21:00 -4°C° 0 mm 0 mps 752 mmHg 92%
    22:00 -3°C° 0 mm 1 mps 752 mmHg 92%
    23:00 -3°C° 0 mm 1 mps 752 mmHg 92%

    26 November, Monday

    Time Temperature Precipitation Wind Pressure Humidity
    00:00 -4°C° 0 mm 1 mps 752 mmHg 93%
    01:00 -4°C° 0 mm 1 mps 751 mmHg 93%
    02:00 -4°C° 0 mm 1 mps 751 mmHg 94%
    03:00 -4°C° 0 mm 1 mps 751 mmHg 94%
    04:00 -4°C° 0 mm 1 mps 751 mmHg 95%
    05:00 -4°C° 0 mm 1 mps 750 mmHg 96%
    06:00 -4°C° 0 mm 1 mps 750 mmHg 95%
    07:00 -4°C° 0 mm 1 mps 750 mmHg 95%
    08:00 -4°C° 0 mm 1 mps 750 mmHg 95%
    09:00 -4°C° 0 mm 1 mps 750 mmHg 91%
    10:00 -5°C° 0 mm 2 mps 750 mmHg 86%
    11:00 -4°C° 0 mm 2 mps 750 mmHg 81%
    12:00 -4°C° 0 mm 2 mps 750 mmHg 80%
    13:00 -4°C° 0 mm 2 mps 750 mmHg 79%
    14:00 -4°C° 0 mm 2 mps 750 mmHg 78%
    15:00 -3°C° 0 mm 1 mps 750 mmHg 81%
    16:00 -3°C° 0 mm 1 mps 750 mmHg 85%
    17:00 -4°C° 0 mm 1 mps 750 mmHg 88%
    18:00 -4°C° 0 mm 1 mps 750 mmHg 89%
    19:00 -4°C° 0 mm 1 mps 750 mmHg 89%
    20:00 -4°C° 0 mm 1 mps 750 mmHg 90%
    21:00 -4°C° 0 mm 1 mps 750 mmHg 90%
    22:00 -4°C° 0 mm 1 mps 750 mmHg 90%
    23:00 -4°C° 0 mm 1 mps 750 mmHg 90%
    Show more